TimeCEST,TemperatureF,Dew PointF,Humidity,Sea Level PressureIn,VisibilityMPH,Wind Direction,Wind SpeedMPH,Gust SpeedMPH,PrecipitationIn,Events,Conditions,WindDirDegrees,DateUTC
12:25 AM,51.8,44.6,76,30.09,6.2,East,8.1,-,N/A,,Mostly Cloudy,80,2013-09-26 22:25:00
12:55 AM,51.8,44.6,76,30.09,6.2,East,6.9,-,N/A,,Overcast,80,2013-09-26 22:55:00
1:25 AM,50.0,44.6,82,30.09,6.2,East,8.1,-,N/A,,Overcast,80,2013-09-26 23:25:00
1:55 AM,46.4,42.8,87,30.09,6.2,ENE,5.8,-,N/A,,Unknown,70,2013-09-26 23:55:00
2:25 AM,48.2,42.8,82,30.09,6.2,NE,5.8,-,N/A,,Unknown,50,2013-09-27 00:25:00
2:55 AM,46.4,42.8,87,30.09,6.2,NE,6.9,-,N/A,,Unknown,50,2013-09-27 00:55:00
3:25 AM,46.4,42.8,87,30.09,6.2,NE,6.9,-,N/A,,Unknown,50,2013-09-27 01:25:00
3:55 AM,46.4,42.8,87,30.09,6.2,NE,3.5,-,N/A,,Unknown,40,2013-09-27 01:55:00
4:25 AM,46.4,44.6,93,30.06,6.2,NE,4.6,-,N/A,,Unknown,40,2013-09-27 02:25:00
4:55 AM,46.4,42.8,87,30.06,6.2,NE,5.8,-,N/A,,Unknown,50,2013-09-27 02:55:00
5:25 AM,44.6,42.8,93,30.06,6.2,NE,8.1,-,N/A,,Unknown,50,2013-09-27 03:25:00
5:55 AM,44.6,42.8,93,30.06,6.2,ENE,4.6,-,N/A,,Unknown,60,2013-09-27 03:55:00
6:25 AM,42.8,41.0,93,30.06,6.2,ENE,5.8,-,N/A,,Unknown,70,2013-09-27 04:25:00
6:55 AM,44.6,42.8,93,30.06,6.2,NE,5.8,-,N/A,,Unknown,50,2013-09-27 04:55:00
7:25 AM,42.8,41.0,93,30.06,6.2,ENE,4.6,-,N/A,,Unknown,70,2013-09-27 05:25:00
7:55 AM,42.8,41.0,93,30.06,6.2,NE,4.6,-,N/A,,Unknown,50,2013-09-27 05:55:00
8:25 AM,42.8,41.0,93,30.06,6.2,NE,4.6,-,N/A,,Unknown,50,2013-09-27 06:25:00
8:55 AM,44.6,42.8,93,30.06,5.6,NE,5.8,-,N/A,,Unknown,50,2013-09-27 06:55:00
9:25 AM,48.2,44.6,87,30.06,6.2,NE,6.9,-,N/A,,Unknown,50,2013-09-27 07:25:00
9:55 AM,50.0,46.4,87,30.09,6.2,ENE,6.9,-,N/A,,Unknown,60,2013-09-27 07:55:00
10:25 AM,50.0,46.4,87,30.06,6.2,East,10.4,-,N/A,,Unknown,80,2013-09-27 08:25:00
10:55 AM,53.6,46.4,77,30.06,6.2,ENE,9.2,-,N/A,,Unknown,60,2013-09-27 08:55:00
11:00 AM,53,46,69,30.09,16,ENE,8.9,,,,,70,2013-09-27 09:00:00
11:25 AM,53.6,46.4,77,30.06,6.2,ENE,10.4,-,N/A,,Unknown,70,2013-09-27 09:25:00
11:55 AM,55.4,46.4,72,30.06,6.2,ENE,11.5,-,N/A,,Unknown,70,2013-09-27 09:55:00
12:25 PM,57.2,46.4,67,30.06,6.2,East,10.4,-,N/A,,Unknown,90,2013-09-27 10:25:00
12:55 PM,57.2,48.2,72,30.04,6.2,East,9.2,-,N/A,,Unknown,90,2013-09-27 10:55:00
1:25 PM,59.0,48.2,67,30.04,6.2,East,9.2,-,N/A,,Unknown,90,2013-09-27 11:25:00
1:55 PM,59.0,48.2,67,30.04,6.2,ESE,9.2,-,N/A,,Mostly Cloudy,110,2013-09-27 11:55:00
2:00 PM,59,49,61,30.05,10,ESE,11.2,,,,Partly Cloudy,110,2013-09-27 12:00:00
2:25 PM,59.0,50.0,72,30.04,6.2,East,9.2,-,N/A,,Scattered Clouds,100,2013-09-27 12:25:00
2:55 PM,60.8,50.0,68,30.04,6.2,East,10.4,-,N/A,,Partly Cloudy,100,2013-09-27 12:55:00
3:25 PM,60.8,50.0,68,30.04,6.2,ESE,9.2,-,N/A,,Mostly Cloudy,110,2013-09-27 13:25:00
3:55 PM,60.8,50.0,68,30.04,6.2,East,10.4,-,N/A,,Partly Cloudy,90,2013-09-27 13:55:00
4:25 PM,60.8,50.0,68,30.01,6.2,East,10.4,-,N/A,,Unknown,80,2013-09-27 14:25:00
4:55 PM,60.8,50.0,68,30.01,6.2,ENE,9.2,-,N/A,,Partly Cloudy,70,2013-09-27 14:55:00
5:00 PM,61,49,56,30.02,11,ESE,11.2,,,,Scattered Clouds,110,2013-09-27 15:00:00
5:25 PM,60.8,50.0,68,30.01,6.2,East,10.4,-,N/A,,Partly Cloudy,100,2013-09-27 15:25:00
5:55 PM,59.0,48.2,67,30.01,6.2,East,8.1,-,N/A,,Unknown,90,2013-09-27 15:55:00
6:25 PM,59.0,48.2,67,30.01,6.2,ESE,6.9,-,N/A,,Unknown,110,2013-09-27 16:25:00
6:55 PM,59.0,48.2,67,30.01,6.2,East,6.9,-,N/A,,Unknown,100,2013-09-27 16:55:00
7:25 PM,55.4,48.2,77,30.01,6.2,East,4.6,-,N/A,,Unknown,90,2013-09-27 17:25:00
7:55 PM,55.4,48.2,77,30.01,6.2,East,5.8,-,N/A,,Unknown,90,2013-09-27 17:55:00
8:00 PM,55,47,67,30.02,12,East,6.7,,,,Partly Cloudy,90,2013-09-27 18:00:00
8:25 PM,55.4,46.4,72,30.01,6.2,East,6.9,-,N/A,,Unknown,90,2013-09-27 18:25:00
8:55 PM,53.6,46.4,77,30.01,6.2,East,5.8,-,N/A,,Unknown,90,2013-09-27 18:55:00
9:25 PM,53.6,46.4,77,30.01,6.2,East,5.8,-,N/A,,Unknown,80,2013-09-27 19:25:00
9:55 PM,50.0,44.6,82,30.01,6.2,East,6.9,-,N/A,,Unknown,80,2013-09-27 19:55:00
10:25 PM,48.2,44.6,87,30.01,6.2,East,4.6,-,N/A,,Unknown,80,2013-09-27 20:25:00
10:55 PM,48.2,42.8,82,30.01,6.2,East,3.5,-,N/A,,Unknown,90,2013-09-27 20:55:00
11:00 PM,49,43,73,30.01,17,East,4.5,,,,,90,2013-09-27 21:00:00
11:25 PM,46.4,42.8,87,30.01,6.2,East,6.9,-,N/A,,Unknown,80,2013-09-27 21:25:00
11:55 PM,48.2,42.8,82,30.01,6.2,ENE,4.6,-,N/A,,Unknown,70,2013-09-27 21:55:00